Time,TemperatureF,DewpointF,PressureIn,WindDirection,WindDirectionDegrees,WindSpeedMPH,WindSpeedGustMPH,Humidity,HourlyPrecipIn,Conditions,Clouds,dailyrainin,SolarRadiationWatts/m^2,SoftwareType,DateUTC
2013-04-23 00:01:00,50.9,40.7,30.28,SE,133,3.0,4.0,68,0.00,,,0.00,0.00,VWS V14.01,2013-04-23 04:01:00,
2013-04-23 00:06:00,51.4,40.0,30.28,North,360,1.0,1.0,65,0.00,,,0.00,0.00,VWS V14.01,2013-04-23 04:06:00,
2013-04-23 00:11:00,51.7,39.9,30.28,NE,44,1.0,1.0,64,0.00,,,0.00,0.00,VWS V14.01,2013-04-23 04:11:00,
2013-04-23 00:16:00,52.0,39.8,30.28,ESE,119,1.0,1.0,63,0.00,,,0.00,0.00,VWS V14.01,2013-04-23 04:16:00,
2013-04-23 00:21:00,52.2,40.0,30.28,NNE,13,0.0,0.0,63,0.00,,,0.00,0.00,VWS V14.01,2013-04-23 04:21:00,
2013-04-23 00:26:00,52.4,39.8,30.28,NE,41,1.0,1.0,62,0.00,,,0.00,0.00,VWS V14.01,2013-04-23 04:26:00,
2013-04-23 00:31:00,52.4,39.8,30.27,South,169,0.0,0.0,62,0.00,,,0.00,0.00,VWS V14.01,2013-04-23 04:31:00,
2013-04-23 00:36:00,52.5,40.3,30.27,ENE,71,2.0,2.0,63,0.00,,,0.00,0.00,VWS V14.01,2013-04-23 04:36:00,
2013-04-23 00:41:00,52.5,39.9,30.28,SSE,156,2.0,2.0,62,0.00,,,0.00,0.00,VWS V14.01,2013-04-23 04:41:00,
2013-04-23 00:46:00,52.5,40.3,30.27,South,180,1.0,2.0,63,0.00,,,0.00,0.00,VWS V14.01,2013-04-23 04:46:00,
2013-04-23 00:51:00,52.5,40.3,30.28,ENE,61,1.0,3.0,63,0.00,,,0.00,0.00,VWS V14.01,2013-04-23 04:51:00,
2013-04-23 00:56:00,52.4,40.2,30.27,East,79,0.0,0.0,63,0.00,,,0.00,0.00,VWS V14.01,2013-04-23 04:56:00,
2013-04-23 01:01:00,52.4,39.8,30.27,SE,146,0.0,0.0,62,0.00,,,0.00,0.00,VWS V14.01,2013-04-23 05:01:00,
2013-04-23 01:06:00,52.3,40.1,30.27,SE,146,0.0,0.0,63,0.00,,,0.00,0.00,VWS V14.01,2013-04-23 05:06:00,
2013-04-23 01:11:00,52.3,39.7,30.28,ENE,61,2.0,2.0,62,0.00,,,0.00,0.00,VWS V14.01,2013-04-23 05:11:00,
2013-04-23 01:16:00,52.2,40.0,30.28,ENE,59,0.0,0.0,63,0.00,,,0.00,0.00,VWS V14.01,2013-04-23 05:16:00,
2013-04-23 01:21:00,52.2,40.4,30.28,ENE,59,0.0,1.0,64,0.00,,,0.00,0.00,VWS V14.01,2013-04-23 05:21:00,
2013-04-23 01:26:00,52.1,39.9,30.28,East,81,2.0,3.0,63,0.00,,,0.00,0.00,VWS V14.01,2013-04-23 05:26:00,
2013-04-23 01:31:00,52.1,40.3,30.28,West,262,0.0,1.0,64,0.00,,,0.00,0.00,VWS V14.01,2013-04-23 05:31:00,
2013-04-23 01:36:00,52.1,40.3,30.28,WNW,286,2.0,3.0,64,0.00,,,0.00,0.00,VWS V14.01,2013-04-23 05:36:00,
2013-04-23 01:41:00,52.2,40.4,30.28,WSW,240,0.0,1.0,64,0.00,,,0.00,0.00,VWS V14.01,2013-04-23 05:41:00,
2013-04-23 01:46:00,52.2,40.8,30.28,WSW,243,1.0,1.0,65,0.00,,,0.00,0.00,VWS V14.01,2013-04-23 05:46:00,
2013-04-23 01:51:00,52.1,40.3,30.28,WSW,243,1.0,1.0,64,0.00,,,0.00,0.00,VWS V14.01,2013-04-23 05:51:00,
2013-04-23 01:56:00,52.1,40.3,30.28,WSW,257,0.0,0.0,64,0.00,,,0.00,0.00,VWS V14.01,2013-04-23 05:56:00,
2013-04-23 02:01:00,52.1,39.9,30.27,NNW,346,0.0,0.0,63,0.00,,,0.00,0.00,VWS V14.01,2013-04-23 06:01:00,
2013-04-23 02:06:00,52.2,40.8,30.27,NW,313,0.0,0.0,65,0.00,,,0.00,0.00,VWS V14.01,2013-04-23 06:06:00,
2013-04-23 02:11:00,52.2,40.4,30.27,West,265,1.0,1.0,64,0.00,,,0.00,0.00,VWS V14.01,2013-04-23 06:11:00,
2013-04-23 02:16:00,52.1,40.3,30.27,SE,138,1.0,1.0,64,0.00,,,0.00,0.00,VWS V14.01,2013-04-23 06:16:00,
2013-04-23 02:21:00,52.1,40.3,30.27,WSW,257,3.0,3.0,64,0.00,,,0.00,0.00,VWS V14.01,2013-04-23 06:21:00,
2013-04-23 02:26:00,52.0,40.2,30.27,NE,46,1.0,1.0,64,0.00,,,0.00,0.00,VWS V14.01,2013-04-23 06:26:00,
2013-04-23 02:30:00,52.0,40.6,30.27,NNW,333,0.0,1.0,65,0.00,,,0.00,0.00,VWS V14.01,2013-04-23 06:30:00,
2013-04-23 02:36:00,52.0,40.6,30.26,SW,232,1.0,2.0,65,0.00,,,0.00,0.00,VWS V14.01,2013-04-23 06:36:00,
2013-04-23 02:41:00,51.9,40.1,30.26,WSW,249,3.0,4.0,64,0.00,,,0.00,0.00,VWS V14.01,2013-04-23 06:41:00,
2013-04-23 02:46:00,51.8,40.0,30.26,NW,311,3.0,3.0,64,0.00,,,0.00,0.00,VWS V14.01,2013-04-23 06:46:00,
2013-04-23 02:51:00,51.7,39.9,30.26,North,360,2.0,2.0,64,0.00,,,0.00,0.00,VWS V14.01,2013-04-23 06:51:00,
2013-04-23 02:56:00,51.7,39.9,30.25,SSW,198,0.0,0.0,64,0.00,,,0.00,0.00,VWS V14.01,2013-04-23 06:56:00,
2013-04-23 03:00:00,51.7,40.3,30.25,SSE,162,0.0,3.0,65,0.00,,,0.00,0.00,VWS V14.01,2013-04-23 07:00:00,
2013-04-23 03:06:00,51.6,40.2,30.25,South,169,0.0,1.0,65,0.00,,,0.00,0.00,VWS V14.01,2013-04-23 07:06:00,
2013-04-23 03:11:00,51.6,40.6,30.25,SSW,205,0.0,0.0,66,0.00,,,0.00,0.00,VWS V14.01,2013-04-23 07:11:00,
2013-04-23 03:16:00,51.6,41.0,30.25,WSW,244,0.0,0.0,67,0.00,,,0.00,0.00,VWS V14.01,2013-04-23 07:16:00,
2013-04-23 03:21:00,51.5,41.3,30.25,SW,234,2.0,2.0,68,0.00,,,0.00,0.00,VWS V14.01,2013-04-23 07:21:00,
2013-04-23 03:26:00,51.4,40.4,30.25,West,279,2.0,2.0,66,0.00,,,0.00,0.00,VWS V14.01,2013-04-23 07:26:00,
2013-04-23 03:30:00,51.4,40.4,30.25,NNW,332,1.0,1.0,66,0.00,,,0.00,0.00,VWS V14.01,2013-04-23 07:30:00,
2013-04-23 03:35:00,51.3,40.3,30.25,NNW,335,0.0,0.0,66,0.00,,,0.00,0.00,VWS V14.01,2013-04-23 07:35:00,
2013-04-23 03:40:00,51.3,40.7,30.25,NNW,335,0.0,1.0,67,0.00,,,0.00,0.00,VWS V14.01,2013-04-23 07:40:00,
2013-04-23 03:45:00,51.3,40.7,30.25,NNW,335,3.0,3.0,67,0.00,,,0.00,0.00,VWS V14.01,2013-04-23 07:45:00,
2013-04-23 03:50:00,51.2,41.0,30.25,NNW,335,1.0,1.0,68,0.00,,,0.00,0.00,VWS V14.01,2013-04-23 07:50:00,
2013-04-23 03:55:00,51.2,40.6,30.25,NNW,335,2.0,2.0,67,0.00,,,0.00,0.00,VWS V14.01,2013-04-23 07:55:00,
2013-04-23 04:00:00,51.2,40.6,30.25,WSW,257,1.0,3.0,67,0.00,,,0.00,0.00,VWS V14.01,2013-04-23 08:00:00,
2013-04-23 04:05:00,51.1,40.9,30.25,SW,221,1.0,1.0,68,0.00,,,0.00,0.00,VWS V14.01,2013-04-23 08:05:00,
2013-04-23 04:10:00,51.0,40.4,30.25,NNW,329,1.0,1.0,67,0.00,,,0.00,0.00,VWS V14.01,2013-04-23 08:10:00,
2013-04-23 04:15:00,51.0,40.4,30.25,NNW,327,0.0,2.0,67,0.00,,,0.00,0.00,VWS V14.01,2013-04-23 08:15:00,
2013-04-23 04:20:00,51.0,40.4,30.25,NW,319,2.0,4.0,67,0.00,,,0.00,0.00,VWS V14.01,2013-04-23 08:20:00,
2013-04-23 04:25:00,50.9,40.3,30.25,NW,321,2.0,5.0,67,0.00,,,0.00,0.00,VWS V14.01,2013-04-23 08:25:00,
2013-04-23 04:30:00,50.9,41.1,30.25,SSE,159,2.0,4.0,69,0.00,,,0.00,0.00,VWS V14.01,2013-04-23 08:30:00,
2013-04-23 04:35:00,50.8,41.0,30.25,NW,319,4.0,4.0,69,0.00,,,0.00,0.00,VWS V14.01,2013-04-23 08:35:00,
2013-04-23 04:40:00,50.8,41.0,30.25,ESE,119,0.0,0.0,69,0.00,,,0.00,0.00,VWS V14.01,2013-04-23 08:40:00,
2013-04-23 04:45:00,50.7,40.9,30.25,NNW,335,2.0,4.0,69,0.00,,,0.00,0.00,VWS V14.01,2013-04-23 08:45:00,
2013-04-23 04:50:00,50.6,40.8,30.25,NNW,346,0.0,1.0,69,0.00,,,0.00,0.00,VWS V14.01,2013-04-23 08:50:00,
2013-04-23 04:55:00,50.6,41.2,30.25,NNW,346,0.0,0.0,70,0.00,,,0.00,0.00,VWS V14.01,2013-04-23 08:55:00,
2013-04-23 05:00:00,50.6,41.6,30.25,NNE,22,3.0,3.0,71,0.00,,,0.00,0.00,VWS V14.01,2013-04-23 09:00:00,
2013-04-23 05:05:00,50.5,41.1,30.25,North,5,2.0,2.0,70,0.00,,,0.00,0.00,VWS V14.01,2013-04-23 09:05:00,
2013-04-23 05:10:00,50.4,41.0,30.25,SE,137,0.0,3.0,70,0.00,,,0.00,0.00,VWS V14.01,2013-04-23 09:10:00,
2013-04-23 05:15:00,50.3,41.6,30.25,ENE,57,2.0,4.0,72,0.00,,,0.00,0.00,VWS V14.01,2013-04-23 09:15:00,
2013-04-23 05:20:00,50.2,41.5,30.25,WSW,254,3.0,4.0,72,0.00,,,0.00,0.00,VWS V14.01,2013-04-23 09:20:00,
2013-04-23 05:25:00,50.1,41.8,30.24,WSW,247,1.0,2.0,73,0.00,,,0.00,0.00,VWS V14.01,2013-04-23 09:25:00,
2013-04-23 05:30:00,50.0,41.7,30.24,WSW,247,0.0,1.0,73,0.00,,,0.00,0.00,VWS V14.01,2013-04-23 09:30:00,
2013-04-23 05:35:00,49.9,41.6,30.24,WSW,246,0.0,1.0,73,0.00,,,0.00,0.00,VWS V14.01,2013-04-23 09:35:00,
2013-04-23 05:40:00,49.9,41.6,30.24,SSW,208,1.0,2.0,73,0.00,,,0.00,0.00,VWS V14.01,2013-04-23 09:40:00,
2013-04-23 05:45:00,49.7,41.4,30.24,North,5,0.0,1.0,73,0.00,,,0.00,0.00,VWS V14.01,2013-04-23 09:45:00,
2013-04-23 05:50:00,49.7,41.8,30.24,North,5,0.0,0.0,74,0.00,,,0.00,0.00,VWS V14.01,2013-04-23 09:50:00,
2013-04-23 05:55:00,49.7,41.8,30.24,NNE,12,1.0,2.0,74,0.00,,,0.00,0.00,VWS V14.01,2013-04-23 09:55:00,
2013-04-23 06:00:00,49.6,41.7,30.24,NNW,348,0.0,1.0,74,0.00,,,0.00,0.00,VWS V14.01,2013-04-23 10:00:00,
2013-04-23 06:05:00,49.5,41.9,30.24,NNW,348,0.0,1.0,75,0.00,,,0.00,0.00,VWS V14.01,2013-04-23 10:05:00,
2013-04-23 06:10:00,49.5,42.3,30.24,NNW,348,0.0,0.0,76,0.00,,,0.00,0.00,VWS V14.01,2013-04-23 10:10:00,
2013-04-23 06:15:00,49.4,42.2,30.24,NNW,348,2.0,2.0,76,0.00,,,0.00,0.00,VWS V14.01,2013-04-23 10:15:00,
2013-04-23 06:20:00,49.3,43.1,30.24,WNW,285,1.0,1.0,79,0.00,,,0.00,0.00,VWS V14.01,2013-04-23 10:20:00,
2013-04-23 06:25:00,48.9,43.0,30.23,SSW,204,1.0,4.0,80,0.00,,,0.00,0.00,VWS V14.01,2013-04-23 10:25:00,
2013-04-23 06:30:00,48.6,43.4,30.23,WNW,298,2.0,2.0,82,0.00,,,0.00,0.00,VWS V14.01,2013-04-23 10:30:00,
2013-04-23 06:35:00,48.4,43.5,30.24,NW,304,0.0,1.0,83,0.00,,,0.00,0.00,VWS V14.01,2013-04-23 10:35:00,
2013-04-23 06:40:00,48.2,43.3,30.24,NW,304,0.0,1.0,83,0.00,,,0.00,0.00,VWS V14.01,2013-04-23 10:40:00,
2013-04-23 06:45:00,48.1,43.2,30.24,NNW,338,2.0,2.0,83,0.00,,,0.00,0.00,VWS V14.01,2013-04-23 10:45:00,
2013-04-23 06:50:00,47.9,43.0,30.24,NNW,348,1.0,2.0,83,0.00,,,0.00,5.00,VWS V14.01,2013-04-23 10:50:00,
2013-04-23 06:55:00,47.9,43.0,30.24,NNW,348,0.0,2.0,83,0.00,,,0.00,7.00,VWS V14.01,2013-04-23 10:55:00,
2013-04-23 07:00:00,48.0,43.4,30.24,NNW,348,0.0,0.0,84,0.00,,,0.00,12.00,VWS V14.01,2013-04-23 11:00:00,
2013-04-23 07:05:00,48.0,43.1,30.24,North,349,0.0,1.0,83,0.00,,,0.00,14.00,VWS V14.01,2013-04-23 11:05:00,
2013-04-23 07:10:00,48.0,43.4,30.24,North,349,0.0,1.0,84,0.00,,,0.00,18.00,VWS V14.01,2013-04-23 11:10:00,
2013-04-23 07:15:00,48.1,43.2,30.24,NNW,339,3.0,3.0,83,0.00,,,0.00,21.00,VWS V14.01,2013-04-23 11:15:00,
2013-04-23 07:20:00,48.1,43.2,30.25,NNW,339,3.0,4.0,83,0.00,,,0.00,25.00,VWS V14.01,2013-04-23 11:20:00,
2013-04-23 07:25:00,48.2,43.3,30.25,NNW,344,2.0,3.0,83,0.00,,,0.00,28.00,VWS V14.01,2013-04-23 11:25:00,
2013-04-23 07:30:00,48.2,43.0,30.25,NNE,12,3.0,5.0,82,0.00,,,0.00,30.00,VWS V14.01,2013-04-23 11:30:00,
2013-04-23 07:35:00,48.3,43.1,30.25,NNE,12,0.0,1.0,82,0.00,,,0.00,33.00,VWS V14.01,2013-04-23 11:35:00,
2013-04-23 07:40:00,48.4,43.2,30.25,WSW,252,1.0,2.0,82,0.00,,,0.00,40.00,VWS V14.01,2013-04-23 11:40:00,
2013-04-23 07:45:00,48.5,43.3,30.25,SW,217,2.0,2.0,82,0.00,,,0.00,49.00,VWS V14.01,2013-04-23 11:45:00,
2013-04-23 07:50:00,48.7,43.1,30.25,NNW,333,1.0,1.0,81,0.00,,,0.00,47.00,VWS V14.01,2013-04-23 11:50:00,
2013-04-23 07:55:00,48.8,43.2,30.24,South,175,4.0,4.0,81,0.00,,,0.00,62.00,VWS V14.01,2013-04-23 11:55:00,
2013-04-23 08:00:00,48.9,43.0,30.25,NW,324,0.0,2.0,80,0.00,,,0.00,69.00,VWS V14.01,2013-04-23 12:00:00,
2013-04-23 08:05:00,49.0,43.1,30.25,NW,324,2.0,2.0,80,0.00,,,0.00,69.00,VWS V14.01,2013-04-23 12:05:00,
2013-04-23 08:10:00,49.1,43.2,30.25,NNW,338,4.0,4.0,80,0.00,,,0.00,72.00,VWS V14.01,2013-04-23 12:10:00,
2013-04-23 08:15:00,49.2,43.0,30.25,West,260,3.0,3.0,79,0.00,,,0.00,84.00,VWS V14.01,2013-04-23 12:15:00,
2013-04-23 08:20:00,49.4,43.5,30.25,SSE,155,0.0,0.0,80,0.00,,,0.00,76.00,VWS V14.01,2013-04-23 12:20:00,
2013-04-23 08:25:00,49.5,43.3,30.25,NNE,13,1.0,2.0,79,0.00,,,0.00,83.00,VWS V14.01,2013-04-23 12:25:00,
2013-04-23 08:30:00,49.7,43.5,30.25,NNE,13,0.0,1.0,79,0.00,,,0.00,98.00,VWS V14.01,2013-04-23 12:30:00,
2013-04-23 08:35:00,49.9,43.3,30.25,WNW,286,0.0,2.0,78,0.00,,,0.00,113.00,VWS V14.01,2013-04-23 12:35:00,
2013-04-23 08:40:00,50.0,43.4,30.25,North,355,0.0,0.0,78,0.00,,,0.00,127.00,VWS V14.01,2013-04-23 12:40:00,
2013-04-23 08:45:00,50.2,43.6,30.25,NNW,337,4.0,6.0,78,0.00,,,0.00,139.00,VWS V14.01,2013-04-23 12:45:00,
2013-04-23 08:50:00,50.4,43.5,30.24,North,360,3.0,3.0,77,0.00,,,0.00,172.00,VWS V14.01,2013-04-23 12:50:00,
2013-04-23 08:55:00,50.6,43.7,30.24,NNE,22,0.0,2.0,77,0.00,,,0.00,155.00,VWS V14.01,2013-04-23 12:55:00,
2013-04-23 09:00:00,50.8,43.9,30.24,West,275,1.0,1.0,77,0.00,,,0.00,151.00,VWS V14.01,2013-04-23 13:00:00,
2013-04-23 09:05:00,51.0,43.4,30.25,NNW,348,0.0,3.0,75,0.00,,,0.00,176.00,VWS V14.01,2013-04-23 13:05:00,
2013-04-23 09:10:00,51.3,43.3,30.25,NE,51,0.0,0.0,74,0.00,,,0.00,144.00,VWS V14.01,2013-04-23 13:10:00,
2013-04-23 09:15:00,51.6,43.6,30.25,SSE,152,0.0,2.0,74,0.00,,,0.00,156.00,VWS V14.01,2013-04-23 13:15:00,
2013-04-23 09:20:00,51.9,43.9,30.25,WNW,285,1.0,2.0,74,0.00,,,0.00,151.00,VWS V14.01,2013-04-23 13:20:00,
2013-04-23 09:25:00,52.0,43.3,30.25,NNW,348,1.0,2.0,72,0.00,,,0.00,162.00,VWS V14.01,2013-04-23 13:25:00,
2013-04-23 09:30:00,52.1,43.4,30.26,NNW,328,2.0,3.0,72,0.00,,,0.00,186.00,VWS V14.01,2013-04-23 13:30:00,
2013-04-23 09:35:00,52.3,43.2,30.25,SW,236,1.0,2.0,71,0.00,,,0.00,204.00,VWS V14.01,2013-04-23 13:35:00,
2013-04-23 09:40:00,52.5,43.4,30.26,NNW,342,2.0,3.0,71,0.00,,,0.00,195.00,VWS V14.01,2013-04-23 13:40:00,
2013-04-23 09:45:00,52.7,43.6,30.26,NNW,342,1.0,2.0,71,0.00,,,0.00,202.00,VWS V14.01,2013-04-23 13:45:00,
2013-04-23 09:50:00,52.9,43.4,30.26,NNW,346,3.0,4.0,70,0.00,,,0.00,221.00,VWS V14.01,2013-04-23 13:50:00,
2013-04-23 09:55:00,53.1,44.3,30.26,West,261,1.0,1.0,72,0.00,,,0.00,209.00,VWS V14.01,2013-04-23 13:55:00,
2013-04-23 10:00:00,53.4,43.9,30.26,NNW,336,1.0,1.0,70,0.00,,,0.00,218.00,VWS V14.01,2013-04-23 14:00:00,
2013-04-23 10:05:00,53.6,43.7,30.26,North,355,0.0,0.0,69,0.00,,,0.00,207.00,VWS V14.01,2013-04-23 14:05:00,
2013-04-23 10:10:00,53.9,44.0,30.26,North,355,0.0,3.0,69,0.00,,,0.00,207.00,VWS V14.01,2013-04-23 14:10:00,
2013-04-23 10:15:00,54.1,44.2,30.26,WSW,244,1.0,2.0,69,0.00,,,0.00,213.00,VWS V14.01,2013-04-23 14:15:00,
2013-04-23 10:20:00,54.3,44.4,30.26,West,268,1.0,2.0,69,0.00,,,0.00,234.00,VWS V14.01,2013-04-23 14:20:00,
2013-04-23 10:25:00,54.5,44.5,30.26,NW,320,0.0,1.0,69,0.00,,,0.00,225.00,VWS V14.01,2013-04-23 14:25:00,
2013-04-23 10:30:00,54.8,44.8,30.26,NNW,331,0.0,0.0,69,0.00,,,0.00,216.00,VWS V14.01,2013-04-23 14:30:00,
2013-04-23 10:35:00,55.0,44.7,30.26,NNW,331,0.0,0.0,68,0.00,,,0.00,209.00,VWS V14.01,2013-04-23 14:35:00,
2013-04-23 10:40:00,55.0,45.0,30.26,South,178,0.0,1.0,69,0.00,,,0.00,230.00,VWS V14.01,2013-04-23 14:40:00,
2013-04-23 10:45:00,55.3,45.3,30.27,WNW,299,0.0,1.0,69,0.00,,,0.00,251.00,VWS V14.01,2013-04-23 14:45:00,
2013-04-23 10:50:00,55.2,44.8,30.26,NW,306,0.0,1.0,68,0.00,,,0.00,299.00,VWS V14.01,2013-04-23 14:50:00,
2013-04-23 10:55:00,55.6,45.6,30.25,NW,325,2.0,2.0,69,0.00,,,0.00,357.00,VWS V14.01,2013-04-23 14:55:00,
2013-04-23 11:00:00,55.6,45.6,30.26,ENE,59,1.0,2.0,69,0.00,,,0.00,517.00,VWS V14.01,2013-04-23 15:00:00,
2013-04-23 11:05:00,55.9,45.1,30.26,ENE,59,0.0,1.0,67,0.00,,,0.00,399.00,VWS V14.01,2013-04-23 15:05:00,
2013-04-23 11:10:00,56.2,45.0,30.25,North,5,0.0,0.0,66,0.00,,,0.00,601.00,VWS V14.01,2013-04-23 15:10:00,
2013-04-23 11:15:00,56.7,45.5,30.25,ESE,103,1.0,1.0,66,0.00,,,0.00,404.00,VWS V14.01,2013-04-23 15:15:00,
2013-04-23 11:20:00,57.3,46.5,30.25,NE,54,1.0,1.0,67,0.00,,,0.00,376.00,VWS V14.01,2013-04-23 15:20:00,
2013-04-23 11:25:00,57.8,45.3,30.26,North,360,1.0,2.0,63,0.00,,,0.00,283.00,VWS V14.01,2013-04-23 15:25:00,
2013-04-23 11:30:00,57.8,44.9,30.27,ENE,78,0.0,2.0,62,0.00,,,0.00,213.00,VWS V14.01,2013-04-23 15:30:00,
2013-04-23 11:35:00,57.7,45.2,30.26,SW,223,0.0,1.0,63,0.00,,,0.00,281.00,VWS V14.01,2013-04-23 15:35:00,
2013-04-23 11:40:00,57.7,45.6,30.26,SW,229,1.0,2.0,64,0.00,,,0.00,309.00,VWS V14.01,2013-04-23 15:40:00,
2013-04-23 11:45:00,57.7,45.2,30.26,SW,221,0.0,1.0,63,0.00,,,0.00,318.00,VWS V14.01,2013-04-23 15:45:00,
2013-04-23 11:50:00,57.7,45.2,30.25,SSW,212,1.0,1.0,63,0.00,,,0.00,357.00,VWS V14.01,2013-04-23 15:50:00,
2013-04-23 11:55:00,58.0,45.9,30.25,SSW,212,0.0,1.0,64,0.00,,,0.00,374.00,VWS V14.01,2013-04-23 15:55:00,
2013-04-23 12:00:00,58.9,46.3,30.25,North,360,0.0,2.0,63,0.00,,,0.00,529.00,VWS V14.01,2013-04-23 16:00:00,
2013-04-23 12:05:00,59.9,46.4,30.24,SSE,154,1.0,1.0,61,0.00,,,0.00,752.00,VWS V14.01,2013-04-23 16:05:00,
2013-04-23 12:10:00,60.4,46.0,30.24,NE,56,0.0,0.0,59,0.00,,,0.00,429.00,VWS V14.01,2013-04-23 16:10:00,
2013-04-23 12:15:00,60.6,46.2,30.24,East,98,0.0,1.0,59,0.00,,,0.00,468.00,VWS V14.01,2013-04-23 16:15:00,
2013-04-23 12:20:00,60.7,46.3,30.23,SSW,205,2.0,2.0,59,0.00,,,0.00,680.00,VWS V14.01,2013-04-23 16:20:00,
2013-04-23 12:25:00,61.1,47.6,30.23,North,355,2.0,3.0,61,0.00,,,0.00,650.00,VWS V14.01,2013-04-23 16:25:00,
2013-04-23 12:30:00,60.8,46.8,30.23,NNW,333,0.0,1.0,60,0.00,,,0.00,1014.00,VWS V14.01,2013-04-23 16:30:00,
2013-04-23 12:35:00,61.4,47.0,30.22,NE,53,0.0,3.0,59,0.00,,,0.00,803.00,VWS V14.01,2013-04-23 16:35:00,
2013-04-23 12:40:00,61.7,47.7,30.22,West,267,1.0,3.0,60,0.00,,,0.00,918.00,VWS V14.01,2013-04-23 16:40:00,
2013-04-23 12:45:00,63.1,48.1,30.22,SE,129,0.0,1.0,58,0.00,,,0.00,953.00,VWS V14.01,2013-04-23 16:45:00,
2013-04-23 12:50:00,62.7,46.8,30.22,SSW,198,0.0,1.0,56,0.00,,,0.00,403.00,VWS V14.01,2013-04-23 16:50:00,
2013-04-23 12:55:00,62.2,47.7,30.21,North,360,2.0,2.0,59,0.00,,,0.00,937.00,VWS V14.01,2013-04-23 16:55:00,
2013-04-23 13:00:00,63.4,49.3,30.21,SSW,211,0.0,0.0,60,0.00,,,0.00,940.00,VWS V14.01,2013-04-23 17:00:00,
2013-04-23 13:05:00,64.8,48.8,30.20,SE,143,2.0,3.0,56,0.00,,,0.00,951.00,VWS V14.01,2013-04-23 17:05:00,
2013-04-23 13:10:00,64.1,48.6,30.20,South,176,1.0,3.0,57,0.00,,,0.00,946.00,VWS V14.01,2013-04-23 17:10:00,
2013-04-23 13:15:00,64.8,48.3,30.20,SSE,151,0.0,1.0,55,0.00,,,0.00,946.00,VWS V14.01,2013-04-23 17:15:00,
2013-04-23 13:20:00,64.3,48.8,30.20,South,186,2.0,3.0,57,0.00,,,0.00,974.00,VWS V14.01,2013-04-23 17:20:00,
2013-04-23 13:25:00,64.9,49.8,30.19,South,188,2.0,2.0,58,0.00,,,0.00,956.00,VWS V14.01,2013-04-23 17:25:00,
2013-04-23 13:30:00,66.1,50.0,30.19,South,179,2.0,2.0,56,0.00,,,0.00,863.00,VWS V14.01,2013-04-23 17:30:00,
2013-04-23 13:35:00,66.5,48.9,30.19,South,171,2.0,2.0,53,0.00,,,0.00,700.00,VWS V14.01,2013-04-23 17:35:00,
2013-04-23 13:40:00,65.7,49.1,30.19,SW,236,0.0,1.0,55,0.00,,,0.00,970.00,VWS V14.01,2013-04-23 17:40:00,
2013-04-23 13:45:00,66.7,50.5,30.18,NE,44,0.0,2.0,56,0.00,,,0.00,944.00,VWS V14.01,2013-04-23 17:45:00,
2013-04-23 13:50:00,67.9,50.2,30.18,South,171,1.0,2.0,53,0.00,,,0.00,942.00,VWS V14.01,2013-04-23 17:50:00,
2013-04-23 13:55:00,66.1,50.0,30.18,SW,235,1.0,1.0,56,0.00,,,0.00,942.00,VWS V14.01,2013-04-23 17:55:00,
2013-04-23 14:00:00,67.1,50.4,30.17,South,175,1.0,2.0,55,0.00,,,0.00,939.00,VWS V14.01,2013-04-23 18:00:00,
2013-04-23 14:05:00,66.8,49.6,30.17,SSE,153,2.0,3.0,54,0.00,,,0.00,939.00,VWS V14.01,2013-04-23 18:05:00,
2013-04-23 14:10:00,66.9,51.2,30.17,SSE,152,2.0,3.0,57,0.00,,,0.00,930.00,VWS V14.01,2013-04-23 18:10:00,
2013-04-23 14:15:00,67.8,51.1,30.17,SSW,204,1.0,1.0,55,0.00,,,0.00,930.00,VWS V14.01,2013-04-23 18:15:00,
2013-04-23 14:20:00,67.5,51.8,30.17,South,184,2.0,2.0,57,0.00,,,0.00,926.00,VWS V14.01,2013-04-23 18:20:00,
2013-04-23 14:25:00,68.8,52.0,30.17,South,189,2.0,2.0,55,0.00,,,0.00,925.00,VWS V14.01,2013-04-23 18:25:00,
2013-04-23 14:30:00,69.2,50.8,30.16,South,178,2.0,2.0,52,0.00,,,0.00,916.00,VWS V14.01,2013-04-23 18:30:00,
2013-04-23 14:35:00,68.7,50.9,30.17,ESE,117,2.0,2.0,53,0.00,,,0.00,911.00,VWS V14.01,2013-04-23 18:35:00,
2013-04-23 14:40:00,69.0,51.2,30.17,SSE,150,2.0,3.0,53,0.00,,,0.00,914.00,VWS V14.01,2013-04-23 18:40:00,
2013-04-23 14:45:00,68.6,51.3,30.16,SSE,155,1.0,2.0,54,0.00,,,0.00,911.00,VWS V14.01,2013-04-23 18:45:00,
2013-04-23 14:50:00,68.0,50.2,30.16,SSE,160,2.0,2.0,53,0.00,,,0.00,905.00,VWS V14.01,2013-04-23 18:50:00,
2013-04-23 14:55:00,67.9,50.7,30.16,SSW,213,2.0,2.0,54,0.00,,,0.00,891.00,VWS V14.01,2013-04-23 18:55:00,
2013-04-23 15:00:00,67.7,51.5,30.15,SSE,162,1.0,2.0,56,0.00,,,0.00,861.00,VWS V14.01,2013-04-23 19:00:00,
2013-04-23 15:05:00,67.6,50.4,30.16,SSE,165,1.0,2.0,54,0.00,,,0.00,919.00,VWS V14.01,2013-04-23 19:05:00,
2013-04-23 15:10:00,69.4,52.5,30.15,East,101,1.0,2.0,55,0.00,,,0.00,867.00,VWS V14.01,2013-04-23 19:10:00,
2013-04-23 15:15:00,69.0,50.1,30.15,ENE,71,0.0,2.0,51,0.00,,,0.00,858.00,VWS V14.01,2013-04-23 19:15:00,
2013-04-23 15:20:00,69.8,50.9,30.14,SSE,162,2.0,3.0,51,0.00,,,0.00,874.00,VWS V14.01,2013-04-23 19:20:00,
2013-04-23 15:25:00,69.9,50.4,30.14,SE,140,3.0,3.0,50,0.00,,,0.00,151.00,VWS V14.01,2013-04-23 19:25:00,
2013-04-23 15:30:00,69.3,50.9,30.14,South,180,2.0,2.0,52,0.00,,,0.00,872.00,VWS V14.01,2013-04-23 19:30:00,
2013-04-23 15:35:00,70.6,51.1,30.13,SW,234,3.0,3.0,50,0.00,,,0.00,823.00,VWS V14.01,2013-04-23 19:35:00,
2013-04-23 15:40:00,69.9,49.9,30.13,SSE,155,2.0,2.0,49,0.00,,,0.00,810.00,VWS V14.01,2013-04-23 19:40:00,
2013-04-23 15:45:00,69.4,51.0,30.12,West,274,0.0,1.0,52,0.00,,,0.00,807.00,VWS V14.01,2013-04-23 19:45:00,
2013-04-23 15:50:00,69.4,51.0,30.12,West,273,0.0,1.0,52,0.00,,,0.00,800.00,VWS V14.01,2013-04-23 19:50:00,
2013-04-23 15:55:00,69.9,51.0,30.12,WSW,248,0.0,0.0,51,0.00,,,0.00,802.00,VWS V14.01,2013-04-23 19:55:00,
2013-04-23 16:00:00,69.5,50.1,30.12,SW,230,1.0,3.0,50,0.00,,,0.00,724.00,VWS V14.01,2013-04-23 20:00:00,
2013-04-23 16:05:00,69.4,50.5,30.12,WSW,243,3.0,4.0,51,0.00,,,0.00,752.00,VWS V14.01,2013-04-23 20:05:00,
2013-04-23 16:10:00,69.8,50.3,30.12,SSE,161,0.0,1.0,50,0.00,,,0.00,733.00,VWS V14.01,2013-04-23 20:10:00,
2013-04-23 16:15:00,70.8,52.3,30.12,South,179,0.0,0.0,52,0.00,,,0.00,712.00,VWS V14.01,2013-04-23 20:15:00,
2013-04-23 16:20:00,71.4,51.8,30.12,South,183,2.0,2.0,50,0.00,,,0.00,698.00,VWS V14.01,2013-04-23 20:20:00,
2013-04-23 16:25:00,70.5,50.4,30.11,WSW,255,0.0,1.0,49,0.00,,,0.00,680.00,VWS V14.01,2013-04-23 20:25:00,
2013-04-23 16:30:00,69.9,50.4,30.11,SW,224,0.0,0.0,50,0.00,,,0.00,666.00,VWS V14.01,2013-04-23 20:30:00,
2013-04-23 16:35:00,71.3,51.2,30.11,South,182,2.0,3.0,49,0.00,,,0.00,652.00,VWS V14.01,2013-04-23 20:35:00,
2013-04-23 16:40:00,70.9,50.8,30.11,SE,132,1.0,2.0,49,0.00,,,0.00,640.00,VWS V14.01,2013-04-23 20:40:00,
2013-04-23 16:45:00,71.1,50.4,30.11,SE,132,1.0,1.0,48,0.00,,,0.00,622.00,VWS V14.01,2013-04-23 20:45:00,
2013-04-23 16:50:00,70.9,52.4,30.10,SW,218,0.0,2.0,52,0.00,,,0.00,605.00,VWS V14.01,2013-04-23 20:50:00,
2013-04-23 16:55:00,70.8,52.3,30.10,SW,230,1.0,1.0,52,0.00,,,0.00,585.00,VWS V14.01,2013-04-23 20:55:00,
2013-04-23 17:00:00,71.4,51.3,30.10,SE,128,3.0,3.0,49,0.00,,,0.00,578.00,VWS V14.01,2013-04-23 21:00:00,
2013-04-23 17:05:00,71.5,51.4,30.10,South,182,1.0,1.0,49,0.00,,,0.00,559.00,VWS V14.01,2013-04-23 21:05:00,
2013-04-23 17:10:00,71.6,51.5,30.11,SE,132,1.0,2.0,49,0.00,,,0.00,545.00,VWS V14.01,2013-04-23 21:10:00,
2013-04-23 17:15:00,71.1,51.0,30.10,South,190,0.0,0.0,49,0.00,,,0.00,508.00,VWS V14.01,2013-04-23 21:15:00,
2013-04-23 17:20:00,71.1,51.5,30.10,West,269,2.0,5.0,50,0.00,,,0.00,475.00,VWS V14.01,2013-04-23 21:20:00,
2013-04-23 17:25:00,70.3,50.3,30.10,West,271,0.0,1.0,49,0.00,,,0.00,443.00,VWS V14.01,2013-04-23 21:25:00,
2013-04-23 17:30:00,70.8,50.7,30.09,SE,144,0.0,1.0,49,0.00,,,0.00,98.00,VWS V14.01,2013-04-23 21:30:00,
2013-04-23 17:35:00,71.1,51.5,30.09,SSE,152,0.0,0.0,50,0.00,,,0.00,135.00,VWS V14.01,2013-04-23 21:35:00,
2013-04-23 17:40:00,71.2,51.6,30.09,SSE,168,0.0,1.0,50,0.00,,,0.00,199.00,VWS V14.01,2013-04-23 21:40:00,
2013-04-23 17:45:00,71.3,51.7,30.09,SSE,167,1.0,2.0,50,0.00,,,0.00,111.00,VWS V14.01,2013-04-23 21:45:00,
2013-04-23 17:50:00,71.3,52.3,30.09,South,175,0.0,1.0,51,0.00,,,0.00,104.00,VWS V14.01,2013-04-23 21:50:00,
2013-04-23 17:55:00,71.2,51.1,30.09,South,169,1.0,2.0,49,0.00,,,0.00,109.00,VWS V14.01,2013-04-23 21:55:00,
2013-04-23 18:00:00,70.9,51.3,30.09,South,175,1.0,1.0,50,0.00,,,0.00,76.00,VWS V14.01,2013-04-23 22:00:00,
2013-04-23 18:05:00,70.6,50.5,30.09,East,98,0.0,1.0,49,0.00,,,0.00,86.00,VWS V14.01,2013-04-23 22:05:00,
2013-04-23 18:10:00,70.3,50.8,30.09,East,98,0.0,0.0,50,0.00,,,0.00,169.00,VWS V14.01,2013-04-23 22:10:00,
2013-04-23 18:15:00,70.3,51.9,30.08,SE,139,1.0,2.0,52,0.00,,,0.00,172.00,VWS V14.01,2013-04-23 22:15:00,
2013-04-23 18:20:00,70.2,51.8,30.08,SSE,157,1.0,2.0,52,0.00,,,0.00,134.00,VWS V14.01,2013-04-23 22:20:00,
2013-04-23 18:25:00,70.1,51.2,30.09,SE,146,1.0,1.0,51,0.00,,,0.00,77.00,VWS V14.01,2013-04-23 22:25:00,
2013-04-23 18:30:00,70.0,51.1,30.09,SSE,148,2.0,2.0,51,0.00,,,0.00,67.00,VWS V14.01,2013-04-23 22:30:00,
2013-04-23 18:35:00,69.8,51.4,30.09,West,260,3.0,5.0,52,0.00,,,0.00,65.00,VWS V14.01,2013-04-23 22:35:00,
2013-04-23 18:40:00,69.4,51.5,30.09,West,266,0.0,0.0,53,0.00,,,0.00,77.00,VWS V14.01,2013-04-23 22:40:00,
2013-04-23 18:45:00,69.0,51.2,30.10,South,187,0.0,0.0,53,0.00,,,0.00,44.00,VWS V14.01,2013-04-23 22:45:00,
2013-04-23 18:50:00,68.6,50.8,30.10,SSW,198,0.0,0.0,53,0.00,,,0.00,37.00,VWS V14.01,2013-04-23 22:50:00,
2013-04-23 18:55:00,68.3,51.0,30.10,South,190,0.0,2.0,54,0.00,,,0.00,44.00,VWS V14.01,2013-04-23 22:55:00,
2013-04-23 19:00:00,68.0,50.8,30.09,SE,130,0.0,1.0,54,0.00,,,0.00,46.00,VWS V14.01,2013-04-23 23:00:00,
2013-04-23 19:05:00,67.8,51.1,30.09,SE,130,0.0,1.0,55,0.00,,,0.00,47.00,VWS V14.01,2013-04-23 23:05:00,
2013-04-23 19:10:00,67.6,50.9,30.10,SSE,152,0.0,0.0,55,0.00,,,0.00,49.00,VWS V14.01,2013-04-23 23:10:00,
2013-04-23 19:15:00,67.4,51.7,30.10,SE,143,0.0,0.0,57,0.00,,,0.00,35.00,VWS V14.01,2013-04-23 23:15:00,
2013-04-23 19:20:00,67.3,51.6,30.10,SE,143,0.0,0.0,57,0.00,,,0.00,30.00,VWS V14.01,2013-04-23 23:20:00,
2013-04-23 19:25:00,67.0,51.3,30.10,SE,143,0.0,0.0,57,0.00,,,0.00,25.00,VWS V14.01,2013-04-23 23:25:00,
2013-04-23 19:30:00,66.8,51.6,30.10,SE,143,0.0,0.0,58,0.00,,,0.00,19.00,VWS V14.01,2013-04-23 23:30:00,
2013-04-23 19:35:00,66.6,51.8,30.10,SE,143,0.0,0.0,59,0.00,,,0.00,14.00,VWS V14.01,2013-04-23 23:35:00,
2013-04-23 19:40:00,66.4,51.7,30.10,SE,140,0.0,0.0,59,0.00,,,0.00,12.00,VWS V14.01,2013-04-23 23:40:00,
2013-04-23 19:45:00,66.2,51.9,30.10,SE,140,0.0,0.0,60,0.00,,,0.00,9.00,VWS V14.01,2013-04-23 23:45:00,
2013-04-23 19:50:00,65.9,51.6,30.10,SE,140,0.0,0.0,60,0.00,,,0.00,5.00,VWS V14.01,2013-04-23 23:50:00,
2013-04-23 19:55:00,65.7,52.3,30.11,SE,140,0.0,0.0,62,0.00,,,0.00,0.00,VWS V14.01,2013-04-23 23:55:00,
2013-04-23 20:00:00,65.4,52.1,30.11,SE,140,0.0,0.0,62,0.00,,,0.00,0.00,VWS V14.01,2013-04-24 00:00:00,
2013-04-23 20:05:00,65.1,52.2,30.11,SE,140,0.0,0.0,63,0.00,,,0.00,0.00,VWS V14.01,2013-04-24 00:05:00,
2013-04-23 20:10:00,64.8,52.8,30.11,SE,140,0.0,0.0,65,0.00,,,0.00,0.00,VWS V14.01,2013-04-24 00:10:00,
2013-04-23 20:15:00,64.3,52.7,30.11,SE,140,0.0,0.0,66,0.00,,,0.00,0.00,VWS V14.01,2013-04-24 00:15:00,
2013-04-23 20:20:00,63.8,52.7,30.11,SE,140,0.0,0.0,67,0.00,,,0.00,0.00,VWS V14.01,2013-04-24 00:20:00,
2013-04-23 20:25:00,63.3,52.6,30.11,SE,140,0.0,0.0,68,0.00,,,0.00,0.00,VWS V14.01,2013-04-24 00:25:00,
2013-04-23 20:30:00,63.0,52.3,30.11,SE,140,0.0,0.0,68,0.00,,,0.00,0.00,VWS V14.01,2013-04-24 00:30:00,
2013-04-23 20:35:00,62.6,52.3,30.11,SE,140,0.0,0.0,69,0.00,,,0.00,0.00,VWS V14.01,2013-04-24 00:35:00,
2013-04-23 20:40:00,62.3,52.0,30.11,SE,140,0.0,0.0,69,0.00,,,0.00,0.00,VWS V14.01,2013-04-24 00:40:00,
2013-04-23 20:45:00,61.9,52.4,30.11,SE,140,0.0,0.0,71,0.00,,,0.00,0.00,VWS V14.01,2013-04-24 00:45:00,
2013-04-23 20:50:00,61.5,52.8,30.11,SE,140,0.0,0.0,73,0.00,,,0.00,0.00,VWS V14.01,2013-04-24 00:50:00,
2013-04-23 20:55:00,61.1,52.4,30.11,SE,140,0.0,0.0,73,0.00,,,0.00,0.00,VWS V14.01,2013-04-24 00:55:00,
2013-04-23 21:00:00,60.7,52.0,30.11,SE,140,0.0,0.0,73,0.00,,,0.00,0.00,VWS V14.01,2013-04-24 01:00:00,
2013-04-23 21:05:00,60.4,51.7,30.11,SE,140,0.0,0.0,73,0.00,,,0.00,0.00,VWS V14.01,2013-04-24 01:05:00,
2013-04-23 21:10:00,60.2,52.3,30.11,SE,140,0.0,0.0,75,0.00,,,0.00,0.00,VWS V14.01,2013-04-24 01:10:00,
2013-04-23 21:15:00,59.9,52.0,30.11,SE,140,0.0,0.0,75,0.00,,,0.00,0.00,VWS V14.01,2013-04-24 01:15:00,
2013-04-23 21:20:00,59.7,52.1,30.11,SE,140,0.0,0.0,76,0.00,,,0.00,0.00,VWS V14.01,2013-04-24 01:20:00,
2013-04-23 21:25:00,59.4,52.5,30.11,SE,140,0.0,0.0,78,0.00,,,0.00,0.00,VWS V14.01,2013-04-24 01:25:00,
2013-04-23 21:30:00,59.1,52.3,30.11,SE,140,0.0,0.0,78,0.00,,,0.00,0.00,VWS V14.01,2013-04-24 01:30:00,
2013-04-23 21:35:00,58.9,52.4,30.11,SE,140,0.0,0.0,79,0.00,,,0.00,0.00,VWS V14.01,2013-04-24 01:35:00,
2013-04-23 21:40:00,58.7,52.2,30.11,SE,140,0.0,0.0,79,0.00,,,0.00,0.00,VWS V14.01,2013-04-24 01:40:00,
2013-04-23 21:45:00,58.5,52.0,30.12,SE,140,0.0,0.0,79,0.00,,,0.00,0.00,VWS V14.01,2013-04-24 01:45:00,
2013-04-23 21:50:00,58.3,52.2,30.12,SE,133,0.0,0.0,80,0.00,,,0.00,0.00,VWS V14.01,2013-04-24 01:50:00,
2013-04-23 21:54:00,58.2,52.1,30.12,SE,133,0.0,0.0,80,0.00,,,0.00,0.00,VWS V14.01,2013-04-24 01:54:00,
2013-04-23 21:59:00,58.1,52.0,30.12,SSE,147,2.0,2.0,80,0.00,,,0.00,0.00,VWS V14.01,2013-04-24 01:59:00,
2013-04-23 22:04:00,58.0,52.2,30.12,ESE,107,0.0,0.0,81,0.00,,,0.00,0.00,VWS V14.01,2013-04-24 02:04:00,
2013-04-23 22:10:00,58.0,52.2,30.11,ESE,107,0.0,0.0,81,0.00,,,0.00,0.00,VWS V14.01,2013-04-24 02:10:00,
2013-04-23 22:14:00,57.9,52.1,30.12,ESE,107,0.0,0.0,81,0.00,,,0.00,0.00,VWS V14.01,2013-04-24 02:14:00,
2013-04-23 22:19:00,57.9,52.5,30.12,ESE,107,0.0,0.0,82,0.00,,,0.00,0.00,VWS V14.01,2013-04-24 02:19:00,
2013-04-23 22:25:00,57.8,52.3,30.13,ESE,107,0.0,0.0,82,0.00,,,0.00,0.00,VWS V14.01,2013-04-24 02:25:00,
2013-04-23 22:30:00,57.8,52.0,30.13,ESE,107,0.0,0.0,81,0.00,,,0.00,0.00,VWS V14.01,2013-04-24 02:30:00,
2013-04-23 22:35:00,57.8,52.3,30.12,ESE,107,0.0,0.0,82,0.00,,,0.00,0.00,VWS V14.01,2013-04-24 02:35:00,
2013-04-23 22:40:00,57.7,52.2,30.12,ESE,107,0.0,0.0,82,0.00,,,0.00,0.00,VWS V14.01,2013-04-24 02:40:00,
2013-04-23 22:45:00,57.7,52.2,30.12,ESE,107,0.0,0.0,82,0.00,,,0.00,0.00,VWS V14.01,2013-04-24 02:45:00,
2013-04-23 22:50:00,57.5,52.1,30.11,SSE,155,0.0,0.0,82,0.00,,,0.00,0.00,VWS V14.01,2013-04-24 02:50:00,
2013-04-23 22:55:00,57.5,52.1,30.11,SSE,155,0.0,0.0,82,0.00,,,0.00,0.00,VWS V14.01,2013-04-24 02:55:00,
2013-04-23 23:00:00,57.4,52.0,30.11,SSE,155,0.0,0.0,82,0.00,,,0.00,0.00,VWS V14.01,2013-04-24 03:00:00,
2013-04-23 23:05:00,57.3,51.9,30.12,SSE,155,0.0,0.0,82,0.00,,,0.00,0.00,VWS V14.01,2013-04-24 03:05:00,
2013-04-23 23:10:00,57.2,52.1,30.12,SSE,155,0.0,1.0,83,0.00,,,0.00,0.00,VWS V14.01,2013-04-24 03:10:00,
2013-04-23 23:15:00,57.2,52.1,30.11,SSE,155,0.0,1.0,83,0.00,,,0.00,0.00,VWS V14.01,2013-04-24 03:15:00,
2013-04-23 23:20:00,57.2,52.1,30.11,SSE,155,0.0,0.0,83,0.00,,,0.00,0.00,VWS V14.01,2013-04-24 03:20:00,
2013-04-23 23:25:00,57.1,52.3,30.11,SSE,155,0.0,2.0,84,0.00,,,0.00,0.00,VWS V14.01,2013-04-24 03:25:00,
2013-04-23 23:30:00,57.1,52.3,30.11,SSE,155,0.0,1.0,84,0.00,,,0.00,0.00,VWS V14.01,2013-04-24 03:30:00,
2013-04-23 23:36:00,57.1,52.3,30.11,SSE,155,0.0,0.0,84,0.00,,,0.00,0.00,VWS V14.01,2013-04-24 03:36:00,
2013-04-23 23:41:00,57.1,52.3,30.11,SSE,155,0.0,0.0,84,0.00,,,0.00,0.00,VWS V14.01,2013-04-24 03:41:00,
2013-04-23 23:46:00,57.1,52.3,30.11,SSE,155,0.0,0.0,84,0.00,,,0.00,0.00,VWS V14.01,2013-04-24 03:46:00,
2013-04-23 23:51:00,57.0,52.2,30.11,SSE,155,0.0,0.0,84,0.00,,,0.00,0.00,VWS V14.01,2013-04-24 03:51:00,
2013-04-23 23:56:00,56.9,52.1,30.11,SSE,155,0.0,0.0,84,0.00,,,0.00,0.00,VWS V14.01,2013-04-24 03:56:00,